Volver al catálogo

STARLINK-5285

ActivoComunicacionesVLEO
NORAD 55296·PAYLOAD·🇺🇸 United States

Lanzado Jan 19, 2023 desde Vandenberg Space Force Base

Loading…

Próximos Pases (próximas 24 horas)

TLE

ActualizadoSource: CelesTrak SupGP

Época: Sep 14, 2026, 22:08 UTC

1 55296C 23010AD  26257.92270833  .00062021  00000+0  51971-2 0  2571
2 55296  69.9987 267.2123 0003920 266.3155 226.2166 14.98300996    17

Sigue STARLINK-5285 en tiempo real con AllMySat

Download on the App Store